Location: Bavegemberg
(50.9500°N, 3.8833°E)
Time: 21:39:29
(UTC+00:00)

Cosmos 1300 Rocket - Pass Details

Date: 23 May 2024
Orbit: 597 x 624 km, 82.5° (Epoch: 14 June)

Event Time Altitude Azimuth Distance (km) Brightness Sun altitude
Rises 01:09:55 0° 353° (N) 2,878 8.1 -15.8°
Reaches altitude 10° 01:12:14 10° 359° (N) 1,965 7.2 -15.7°
Maximum altitude 01:16:26 48° 75° (ENE) 790 4.3 -15.4°
Enters shadow 01:20:28 11° 150° (SSE) 1,890 5.7 -15.1°
